• In Deutschland
  • Länderverzeichnis
  • Für 7 Tage
  • Wassertemperatur
  • Satellitenkarten
  • Wetterkarte
  • Widgets
  • user-avatar
    Anmelden

    Stündliche Wetter Waldkirch

    Heute, 22 Juni, Freitag

    Zeit Temperatur Niederschläge Wind Luftdruck Luftfeuchtigkeit
    00:00 +10°C° 0 mm 2 m/S 728 mmHg 82%
    01:00 +9°C° 0 mm 2 m/S 729 mmHg 84%
    02:00 +8°C° 0 mm 2 m/S 729 mmHg 85%
    03:00 +8°C° 0 mm 1 m/S 729 mmHg 87%
    04:00 +8°C° 0 mm 1 m/S 729 mmHg 88%
    05:00 +8°C° 0 mm 2 m/S 730 mmHg 84%
    06:00 +9°C° 0 mm 2 m/S 730 mmHg 79%
    07:00 +10°C° 0 mm 2 m/S 730 mmHg 75%
    08:00 +12°C° 0 mm 2 m/S 730 mmHg 67%
    09:00 +13°C° 0 mm 3 m/S 730 mmHg 59%
    10:00 +16°C° 0 mm 3 m/S 730 mmHg 51%
    11:00 +16°C° 0 mm 3 m/S 730 mmHg 51%
    12:00 +17°C° 0 mm 3 m/S 730 mmHg 50%
    13:00 +18°C° 0 mm 4 m/S 730 mmHg 49%
    14:00 +18°C° 0 mm 4 m/S 730 mmHg 51%
    15:00 +18°C° 0 mm 4 m/S 730 mmHg 52%
    16:00 +18°C° 0 mm 4 m/S 730 mmHg 53%
    17:00 +17°C° 0 mm 4 m/S 730 mmHg 58%
    18:00 +16°C° 0 mm 3 m/S 730 mmHg 62%
    19:00 +14°C° 0 mm 3 m/S 730 mmHg 66%
    20:00 +13°C° 0 mm 2 m/S 730 mmHg 73%
    21:00 +12°C° 0 mm 2 m/S 730 mmHg 79%
    22:00 +10°C° 0 mm 1 m/S 730 mmHg 86%
    23:00 +9°C° 0 mm 1 m/S 730 mmHg 87%

    Morgen, 23 Juni, Samstag

    Zeit Temperatur Niederschläge Wind Luftdruck Luftfeuchtigkeit
    00:00 +9°C° 0 mm 1 m/S 730 mmHg 88%
    01:00 +8°C° 0 mm 1 m/S 730 mmHg 90%
    02:00 +8°C° 0 mm 1 m/S 730 mmHg 91%
    03:00 +8°C° 0 mm 1 m/S 730 mmHg 92%
    04:00 +7°C° 0 mm 1 m/S 730 mmHg 92%
    05:00 +9°C° 0 mm 1 m/S 730 mmHg 88%
    06:00 +10°C° 0 mm 1 m/S 730 mmHg 83%
    07:00 +12°C° 0 mm 1 m/S 730 mmHg 78%
    08:00 +13°C° 0 mm 1 m/S 730 mmHg 71%
    09:00 +15°C° 0 mm 2 m/S 730 mmHg 64%
    10:00 +17°C° 0 mm 2 m/S 730 mmHg 57%
    11:00 +18°C° 0 mm 2 m/S 730 mmHg 52%
    12:00 +19°C° 0 mm 2 m/S 730 mmHg 48%
    13:00 +20°C° 0 mm 3 m/S 730 mmHg 44%
    14:00 +20°C° 0 mm 3 m/S 729 mmHg 44%
    15:00 +20°C° 0 mm 3 m/S 729 mmHg 45%
    16:00 +20°C° 0 mm 3 m/S 729 mmHg 46%
    17:00 +19°C° 0 mm 3 m/S 729 mmHg 52%
    18:00 +18°C° 0 mm 3 m/S 729 mmHg 58%
    19:00 +17°C° 0 mm 3 m/S 729 mmHg 64%
    20:00 +16°C° 0 mm 2 m/S 729 mmHg 67%
    21:00 +15°C° 0 mm 2 m/S 729 mmHg 71%
    22:00 +13°C° 0 mm 2 m/S 729 mmHg 74%
    23:00 +12°C° 0,1 mm 2 m/S 729 mmHg 79%

    übermorgen, 24 Juni, Sonntag

    Zeit Temperatur Niederschläge Wind Luftdruck Luftfeuchtigkeit
    00:00 +12°C° 0,1 mm 1 m/S 729 mmHg 83%
    01:00 +11°C° 0,1 mm 1 m/S 728 mmHg 87%
    02:00 +10°C° 0 mm 1 m/S 728 mmHg 89%
    03:00 +10°C° 0 mm 1 m/S 728 mmHg 90%
    04:00 +9°C° 0 mm 1 m/S 728 mmHg 92%
    05:00 +10°C° 0 mm 1 m/S 728 mmHg 88%
    06:00 +12°C° 0 mm 1 m/S 728 mmHg 84%
    07:00 +13°C° 0 mm 1 m/S 728 mmHg 80%
    08:00 +14°C° 0 mm 1 m/S 728 mmHg 73%
    09:00 +16°C° 0 mm 2 m/S 728 mmHg 65%
    10:00 +18°C° 0 mm 2 m/S 728 mmHg 58%
    11:00 +18°C° 0 mm 2 m/S 728 mmHg 56%
    12:00 +19°C° 0 mm 3 m/S 727 mmHg 55%
    13:00 +20°C° 0 mm 3 m/S 727 mmHg 53%
    14:00 +20°C° 0 mm 3 m/S 727 mmHg 54%
    15:00 +20°C° 0 mm 3 m/S 727 mmHg 54%
    16:00 +20°C° 0 mm 3 m/S 727 mmHg 54%
    17:00 +20°C° 0 mm 3 m/S 727 mmHg 60%
    18:00 +19°C° 0 mm 3 m/S 727 mmHg 65%
    19:00 +18°C° 0 mm 2 m/S 727 mmHg 71%
    20:00 +16°C° 0 mm 2 m/S 727 mmHg 76%
    21:00 +15°C° 0 mm 2 m/S 727 mmHg 82%
    22:00 +13°C° 0 mm 2 m/S 727 mmHg 87%
    23:00 +12°C° 0 mm 2 m/S 727 mmHg 89%

    25 Juni, Montag

    Zeit Temperatur Niederschläge Wind Luftdruck Luftfeuchtigkeit
    00:00 +12°C° 0 mm 2 m/S 727 mmHg 90%
    01:00 +10°C° 0 mm 2 m/S 727 mmHg 92%
    02:00 +11°C° 0 mm 1 m/S 727 mmHg 93%
    03:00 +10°C° 0 mm 1 m/S 727 mmHg 93%
    04:00 +10°C° 0 mm 1 m/S 727 mmHg 94%
    05:00 +11°C° 0 mm 1 m/S 727 mmHg 90%
    06:00 +12°C° 0 mm 2 m/S 727 mmHg 86%
    07:00 +14°C° 0 mm 2 m/S 727 mmHg 82%
    08:00 +15°C° 0 mm 2 m/S 728 mmHg 75%
    09:00 +17°C° 0 mm 3 m/S 728 mmHg 67%
    10:00 +19°C° 0 mm 3 m/S 728 mmHg 60%
    11:00 +19°C° 0 mm 3 m/S 728 mmHg 58%
    12:00 +20°C° 0 mm 3 m/S 728 mmHg 56%
    13:00 +21°C° 0 mm 4 m/S 727 mmHg 54%
    14:00 +21°C° 0 mm 4 m/S 727 mmHg 54%
    15:00 +21°C° 0 mm 4 m/S 727 mmHg 54%
    16:00 +21°C° 0 mm 4 m/S 727 mmHg 54%
    17:00 +21°C° 0 mm 4 m/S 727 mmHg 59%
    18:00 +20°C° 0 mm 3 m/S 727 mmHg 63%
    19:00 +19°C° 0 mm 3 m/S 727 mmHg 67%
    20:00 +17°C° 0 mm 3 m/S 727 mmHg 74%
    21:00 +15°C° 0 mm 2 m/S 727 mmHg 81%
    22:00 +14°C° 0 mm 2 m/S 728 mmHg 88%
    23:00 +13°C° 0 mm 2 m/S 727 mmHg 89%

    26 Juni, Dienstag

    Zeit Temperatur Niederschläge Wind Luftdruck Luftfeuchtigkeit
    00:00 +12°C° 0 mm 2 m/S 727 mmHg 91%
    01:00 +12°C° 0 mm 2 m/S 727 mmHg 93%
    02:00 +10°C° 0 mm 2 m/S 727 mmHg 93%
    03:00 +10°C° 0 mm 2 m/S 727 mmHg 93%
    04:00 +10°C° 0 mm 2 m/S 726 mmHg 94%
    05:00 +12°C° 0 mm 2 m/S 727 mmHg 89%
    06:00 +14°C° 0 mm 2 m/S 727 mmHg 84%
    07:00 +15°C° 0 mm 2 m/S 727 mmHg 79%
    08:00 +17°C° 0 mm 3 m/S 727 mmHg 71%
    09:00 +19°C° 0 mm 3 m/S 727 mmHg 63%
    10:00 +21°C° 0 mm 4 m/S 727 mmHg 54%
    11:00 +22°C° 0 mm 4 m/S 727 mmHg 51%
    12:00 +23°C° 0 mm 4 m/S 726 mmHg 48%
    13:00 +25°C° 0 mm 5 m/S 726 mmHg 45%
    14:00 +25°C° 0 mm 5 m/S 726 mmHg 46%
    15:00 +25°C° 0 mm 5 m/S 726 mmHg 46%
    16:00 +26°C° 0 mm 5 m/S 726 mmHg 46%
    17:00 +23°C° 0 mm 4 m/S 726 mmHg 52%
    18:00 +22°C° 0 mm 4 m/S 726 mmHg 58%
    19:00 +21°C° 0 mm 3 m/S 726 mmHg 63%
    20:00 +19°C° 0 mm 3 m/S 726 mmHg 69%
    21:00 +18°C° 0 mm 3 m/S 726 mmHg 75%
    22:00 +16°C° 0 mm 2 m/S 726 mmHg 81%
    23:00 +15°C° 0 mm 2 m/S 726 mmHg 82%

    27 Juni, Mittwoch

    Zeit Temperatur Niederschläge Wind Luftdruck Luftfeuchtigkeit
    00:00 +14°C° 0 mm 2 m/S 726 mmHg 84%
    01:00 +14°C° 0 mm 2 m/S 726 mmHg 85%
    02:00 +13°C° 0 mm 2 m/S 726 mmHg 86%
    03:00 +13°C° 0 mm 2 m/S 726 mmHg 87%
    04:00 +12°C° 0 mm 2 m/S 726 mmHg 88%
    05:00 +14°C° 0 mm 2 m/S 726 mmHg 83%
    06:00 +15°C° 0 mm 2 m/S 726 mmHg 78%
    07:00 +17°C° 0 mm 2 m/S 727 mmHg 72%
    08:00 +19°C° 0 mm 3 m/S 727 mmHg 65%
    09:00 +20°C° 0 mm 3 m/S 727 mmHg 57%
    10:00 +22°C° 0 mm 4 m/S 727 mmHg 49%
    11:00 +23°C° 0 mm 4 m/S 727 mmHg 47%
    12:00 +25°C° 0 mm 4 m/S 727 mmHg 44%
    13:00 +26°C° 0 mm 4 m/S 727 mmHg 42%
    14:00 +26°C° 0 mm 4 m/S 727 mmHg 43%
    15:00 +27°C° 0 mm 4 m/S 726 mmHg 44%
    16:00 +27°C° 0 mm 4 m/S 726 mmHg 45%
    17:00 +26°C° 0 mm 4 m/S 726 mmHg 52%
    18:00 +23°C° 0 mm 4 m/S 726 mmHg 58%
    19:00 +22°C° 0 mm 3 m/S 726 mmHg 64%
    20:00 +21°C° 0 mm 3 m/S 726 mmHg 70%
    21:00 +19°C° 0 mm 2 m/S 727 mmHg 76%
    22:00 +17°C° 0 mm 2 m/S 727 mmHg 82%
    23:00 +16°C° 0 mm 2 m/S 727 mmHg 83%
    Mehr zeigen